Luxor, Egypt

9:08 AM EET on December 17, 2017 (GMT +0200)
Luxor

Weather History for HELX - December, 2012

Change the Weather History Date:

Wednesday, December 12, 2012

  Actual Average Record
Temperature  
Mean Temperature 58 °F -  
Max Temperature 72 °F 71 °F 86 °F (2005)
Min Temperature 43 °F 45 °F 42 °F (2011)
Degree Days  
Heating Degree Days 8    
Growing Degree Days 8 (Base 50)    
Moisture  
Dew Point 41 °F    
Average Humidity 55    
Maximum Humidity 71    
Minimum Humidity 29    
Precipitation  
Precipitation 0.00 in 0.00 in - ()
Sea Level Pressure  
Sea Level Pressure 30.06 in    
Wind  
Wind Speed 1 mph ()    
Max Wind Speed 8 mph    
Max Gust Speed -    
Visibility 6.0 miles    
Events      
Averages and records for this station are not official NWS values.
T = Trace of Precipitation, MM = Missing Value Source: Averaged Metar Reports

Daily Weather History Graph

Daily Weather History Graph

Search for Another Location

Airport or City:

Trip Planner

Search our weather history database for the weather conditions in past years. The results will help you decide how hot, cold, wet, or windy it might be!

Date:

Astronomy

Dec. 12, 2012 Rise Set
Actual Time 6:26 AM EET 4:59 PM EET
Civil Twilight 6:01 AM EET 5:25 PM EET
Nautical Twilight 5:32 AM EET 5:53 PM EET
Astronomical Twilight 5:04 AM EET 6:21 PM EET
Moon 5:10 AM EET (12/12) 4:14 PM EET (12/12)
Length of Visible Light 11h 23m
Length of Day
10h 33m
Waning Crescent, 1% of the Moon is Illuminated
Dec 12
Waning Crescent
Dec 13
New
Dec 20
First Quarter
Dec 28
Full
Jan 5
Last Quarter

Hourly Weather History & Observations

Time (EET) Temp. Dew Point Humidity Pressure Visibility Wind Dir Wind Speed Gust Speed Precip Events Conditions
12:00 AM 53.6 °F 41.0 °F 62% 30.06 in - South 3.5 mph - N/A   Clear
1:00 AM 50.0 °F 37.4 °F 62% 30.06 in - Calm Calm - N/A   Clear
2:00 AM 47 °F 38 °F 61% 30.08 in 6 mi Calm Calm - -  
2:00 AM 48.2 °F 37.4 °F 66% 30.06 in - Calm Calm - N/A   Clear
3:00 AM 46.4 °F 37.4 °F 71% 30.06 in - Calm Calm - N/A   Clear
4:00 AM 46.4 °F 37.4 °F 71% 30.06 in - Calm Calm - N/A   Clear
5:00 AM 46.4 °F 35.6 °F 66% 30.06 in - Calm Calm - N/A   Clear
6:00 AM 44.6 °F 35.6 °F 71% 30.06 in - South 2.3 mph - N/A   Clear
7:00 AM 44.6 °F 35.6 °F 71% 30.06 in - SE 2.3 mph - N/A   Clear
8:00 AM 46 °F 38 °F 64% 30.12 in 6 mi Calm Calm - -  
8:00 AM 46.4 °F 37.4 °F 71% 30.09 in - Calm Calm - N/A   Clear
9:00 AM 57.2 °F 39.2 °F 51% 30.12 in - Calm Calm - N/A   Clear
10:00 AM 60.8 °F 41.0 °F 48% 30.12 in - Calm Calm - N/A   Clear
11:00 AM 62.6 °F 42.8 °F 48% 30.09 in - ENE 2.3 mph - N/A   Clear
12:00 PM 66.2 °F 46.4 °F 49% 30.06 in - NNE 2.3 mph - N/A   Clear
1:00 PM 69.8 °F 46.4 °F 43% 30.01 in - Calm Calm - N/A   Clear
2:00 PM 71 °F 45 °F 29% 30.01 in 6 mi NW 2.3 mph - -   Clear
2:00 PM 71.6 °F 44.6 °F 38% 30.01 in - NW 2.3 mph - N/A   Clear
3:00 PM 71.6 °F 44.6 °F 38% 30.01 in - Calm Calm - N/A   Clear
4:00 PM 71.6 °F 44.6 °F 38% 30.01 in - Calm Calm - N/A   Clear
5:00 PM 68.0 °F 44.6 °F 43% 30.01 in - Calm Calm - N/A   Clear
6:00 PM 64.4 °F 46.4 °F 52% 30.01 in - Calm Calm - N/A   Clear
7:00 PM 60.8 °F 44.6 °F 55% 30.04 in - Calm Calm - N/A   Clear
8:00 PM 58 °F 42 °F 45% 30.06 in 6 mi West 2.3 mph - -  
8:00 PM 59.0 °F 42.8 °F 55% 30.04 in - West 8.1 mph - N/A   Clear
9:00 PM 59.0 °F 41.0 °F 51% 30.06 in - Calm Calm - N/A   Clear
10:00 PM 57.2 °F 41.0 °F 55% 30.06 in - South 2.3 mph - N/A   Clear
11:00 PM 55.4 °F 41.0 °F 58% 30.06 in - SSE 2.3 mph - N/A   Clear